Theta_e
331 333 334 333 332 332 333 334 337 337 337 341 344 342 341 341 343 340 341 345 351 357 364 358 354 351 349 347 345 342 339 337 336 336 334 332 330 330 335 335 336 336 335 334
333 332 332 334 334 333 331 332 333 333 334 345 344 340 339 336 335 337 341 339 346 353 361 357 354 351 349 348 344 340 339 337 336 334 334 331 331 331 334 336 336 334 333 332
337 332 332 334 334 333 334 334 333 336 338 343 342 340 338 336 334 334 335 336 343 351 358 356 353 351 349 348 343 341 338 336 335 334 331 330 331 334 336 336 335 333 333 327
336 340 340 334 333 333 332 333 333 332 343 345 343 339 336 335 334 333 333 337 344 345 350 356 352 350 349 347 344 340 338 336 334 332 330 331 335 335 336 336 334 332 328 329
339 337 337 335 335 335 334 334 334 334 338 337 336 335 341 342 343 342 341 344 345 342 344 355 353 350 348 345 342 339 338 336 334 331 330 334 334 335 335 335 333 329 330 328
339 338 342 340 340 336 335 340 335 336 335 335 337 336 345 344 340 342 343 341 341 339 342 354 352 348 345 342 340 339 336 335 333 331 332 334 334 334 334 334 333 331 328 328
343 341 337 340 336 335 339 342 339 337 338 339 342 346 343 339 339 339 340 341 341 343 345 351 350 345 343 342 341 338 336 335 332 331 333 334 333 333 333 334 331 329 329 326
341 343 343 339 336 337 351 348 341 344 342 344 341 338 339 339 343 342 342 340 342 345 348 350 347 344 343 343 340 338 336 335 332 332 332 332 333 333 333 334 333 329 327 325
340 345 349 344 349 348 345 347 343 343 338 338 336 335 335 337 342 345 342 345 342 344 348 348 345 343 344 343 340 338 337 335 333 334 332 331 332 333 334 333 330 326 327 326
345 342 343 341 339 340 340 337 336 334 332 330 330 329 329 331 332 337 339 342 343 346 347 346 345 343 343 343 341 338 338 335 334 334 333 332 333 333 332 330 327 325 326 325
347 341 337 335 334 335 334 331 329 328 328 327 325 325 325 326 332 330 331 332 333 342 345 344 342 345 344 343 340 333 332 331 329 332 334 330 331 331 329 326 324 325 324 324
339 342 341 341 335 332 331 329 328 327 326 325 323 324 323 326 325 326 327 326 328 330 333 340 342 343 335 336 334 326 326 325 323 330 333 330 329 324 326 323 320 321 316 317
333 333 335 335 334 331 330 327 325 323 322 322 322 322 321 328 324 324 325 326 328 328 328 331 341 338 335 331 327 324 325 324 331 333 328 325 329 326 320 318 318 316 314 316
325 327 328 326 328 328 326 324 321 321 320 319 319 320 321 324 324 326 327 327 327 328 329 331 339 339 336 332 327 323 329 326 331 333 330 327 327 327 327 323 319 318 316 317
321 320 321 321 321 321 322 322 321 320 320 321 321 323 322 325 327 327 326 326 326 328 329 335 337 336 333 332 331 334 334 333 332 331 326 325 326 326 328 327 326 327 323 319
320 319 320 320 321 322 322 321 320 321 324 325 328 327 324 322 324 325 325 325 328 331 331 332 332 331 328 328 330 329 326 331 326 326 326 325 326 326 325 326 325 321 317 316
319 320 321 322 323 325 326 325 325 325 326 325 326 324 323 322 324 325 325 326 331 331 333 332 332 324 321 321 320 319 326 326 322 325 327 326 325 325 319 320 323 319 317 313
321 322 323 323 324 324 324 324 325 326 326 324 324 323 324 326 327 328 328 328 330 331 331 333 332 331 324 320 318 320 322 325 321 324 325 322 322 319 323 324 322 321 317 311
322 323 324 325 326 327 327 328 328 328 329 327 327 326 327 326 326 328 330 329 332 331 331 329 329 330 325 323 322 324 325 324 325 324 322 322 322 321 322 320 319 318 314 312
324 324 326 327 326 326 327 328 328 327 327 327 328 328 329 329 328 331 332 330 327 328 328 327 327 326 325 323 325 324 324 324 324 323 323 321 320 318 318 315 313 312 311 310
326 328 327 326 327 327 326 326 326 326 327 329 330 329 328 330 331 330 329 328 324 323 326 326 325 324 323 321 321 322 321 320 320 320 319 319 320 320 316 312 311 310 309 309
328 327 325 325 325 324 323 323 323 324 326 328 328 329 329 329 328 327 325 325 322 321 324 322 321 320 321 319 319 320 319 318 316 316 316 314 314 312 311 310 309 308 308 308
326 326 325 325 323 321 320 318 317 319 322 324 325 327 327 326 324 325 323 319 320 319 320 317 314 313 313 315 315 316 316 315 314 314 312 311 310 310 308 307 307 307 306 306
326 325 323 322 322 321 320 318 316 313 314 318 319 320 323 322 319 313 311 314 314 315 312 309 308 309 309 311 314 314 314 313 312 310 308 308 307 306 306 306 305 305 304 304
324 323 322 321 321 321 320 317 314 312 314 316 316 315 314 315 315 313 310 307 308 309 308 307 308 309 311 311 310 310 310 309 309 307 306 306 306 305 305 305 305 305 304 304
323 322 321 320 322 321 320 319 319 318 317 314 312 312 310 308 308 308 306 306 305 306 306 307 309 309 309 309 309 310 308 307 307 306 306 306 306 306 305 305 304 305 305 304
323 321 319 318 317 319 318 317 318 317 316 315 315 314 313 312 311 310 309 309 309 309 310 308 308 309 309 309 309 309 309 307 306 306 307 306 306 306 306 305 305 305 305 304
Wind_Speed
24 20 17 18 20 20 21 14 15 13 10 9 15 13 11 9 6 4 3 4 4 4 8 14 17 21 21 21 18 18 13 11 10 7 6 5 6 9 12 16 16 16 18 19
22 22 24 20 23 22 22 19 17 15 13 15 12 13 10 7 5 4 4 2 5 5 9 15 16 19 19 17 17 14 12 13 10 7 5 4 7 10 13 15 14 16 18 19
18 23 21 21 20 18 18 21 19 14 10 14 14 10 7 5 3 1 4 3 3 7 7 15 16 19 18 16 15 14 14 12 8 7 4 4 7 10 12 11 11 15 17 21
13 16 23 15 17 13 14 15 13 10 14 14 10 8 7 3 3 2 0 4 6 8 11 20 21 23 20 19 18 15 13 12 9 7 6 5 6 8 10 8 10 15 18 17
12 15 16 22 11 7 7 9 6 3 10 13 11 9 7 10 9 7 6 5 5 11 10 20 23 23 22 20 19 15 16 13 11 9 6 6 6 5 7 9 12 15 16 19
11 19 19 12 1 11 7 11 9 6 2 5 10 5 6 5 5 6 6 5 6 6 5 16 18 23 22 17 15 17 16 14 11 9 8 7 6 5 7 9 13 14 18 15
13 14 14 5 11 7 7 1 9 6 6 7 6 7 5 2 3 2 4 5 5 6 9 14 18 23 18 16 18 19 17 12 10 11 11 10 8 5 9 11 16 17 16 10
10 12 17 14 14 9 8 9 12 14 11 10 7 5 6 7 7 6 7 8 5 6 8 16 21 21 19 18 19 18 14 12 12 12 12 10 6 9 14 16 19 16 6 14
5 2 13 16 16 13 12 12 13 11 11 9 6 6 6 6 8 11 10 14 7 7 10 16 20 21 18 18 15 15 12 10 10 12 10 10 11 16 18 17 9 3 9 11
7 9 14 12 10 12 14 13 12 11 10 7 6 5 4 5 5 6 12 15 17 12 10 18 24 23 22 17 14 12 9 4 7 17 12 15 16 18 17 6 3 5 8 8
16 14 14 10 10 11 13 10 10 9 7 7 5 4 4 5 5 5 6 10 15 17 14 6 9 22 25 15 18 11 13 11 6 25 24 22 23 15 6 6 5 4 4 4
4 9 5 14 12 12 8 7 6 5 4 4 5 5 6 5 6 6 8 11 13 14 18 18 14 10 8 22 22 21 9 18 24 29 22 20 16 13 11 7 9 9 11 9
13 15 15 13 10 8 6 4 3 4 5 6 7 9 8 6 7 8 8 11 11 13 17 19 6 7 16 20 10 12 20 25 19 17 15 16 18 18 16 12 11 12 8 7
9 6 9 7 4 3 3 3 1 5 9 9 10 10 10 9 11 9 8 11 13 17 17 20 4 6 9 12 16 20 21 24 13 14 17 15 11 15 14 15 17 11 8 4
5 3 3 4 3 3 4 6 10 10 10 10 12 11 11 9 9 9 6 11 16 18 14 5 4 7 7 13 13 15 15 14 14 17 11 8 4 8 17 17 12 12 10 6
2 4 4 6 5 6 9 10 11 11 10 9 9 10 11 12 10 8 7 12 14 11 6 5 6 8 5 4 3 6 23 18 9 21 14 19 5 11 9 8 6 13 11 7
2 4 6 7 5 6 8 8 8 8 8 9 11 13 11 9 7 4 10 15 4 7 7 5 5 4 8 15 17 4 9 12 9 2 8 1 14 13 4 13 8 11 7 8
5 4 6 7 9 9 10 11 12 10 8 12 10 9 9 9 4 8 11 11 1 2 3 4 6 9 5 4 6 13 20 13 17 10 4 13 17 21 22 10 13 10 12 7
5 5 7 8 10 10 9 9 12 10 14 9 10 10 10 8 10 5 7 7 4 3 4 5 3 7 7 6 13 15 14 14 14 10 13 12 15 19 6 3 4 6 7 8
7 7 7 6 6 6 7 4 8 10 10 12 15 12 10 5 8 8 9 8 8 5 4 4 5 7 8 7 8 7 7 8 9 10 10 13 16 13 9 6 7 7 9 10
3 5 2 4 3 3 5 7 8 10 13 12 12 9 7 8 8 4 3 5 5 2 5 6 7 6 5 6 6 7 9 12 13 15 16 12 9 15 4 10 10 8 9 8
2 3 2 2 3 6 6 7 6 7 8 11 8 3 5 11 10 10 10 7 6 6 5 4 5 5 10 11 10 11 10 9 9 8 6 11 10 11 9 8 8 7 8 7
5 3 3 5 4 4 6 7 7 7 7 9 11 8 6 12 8 6 5 3 3 6 6 8 11 11 7 7 9 10 6 6 6 8 8 6 8 10 11 12 8 10 7 8
7 7 4 4 5 5 5 7 6 5 5 7 8 9 8 10 12 11 12 12 12 11 10 7 4 1 4 8 6 6 6 4 5 9 7 8 10 10 10 8 9 8 7 8
9 9 11 11 8 7 11 11 13 10 8 7 8 10 11 12 12 10 10 11 12 10 6 4 5 7 7 7 5 5 5 7 7 8 8 7 8 10 9 8 8 8 8 8
7 5 7 1 3 6 4 4 8 9 10 10 11 12 11 15 14 11 12 10 9 8 5 1 2 3 5 5 4 7 8 5 5 6 8 7 8 8 10 9 8 8 8 7
5 5 7 7 4 8 6 2 6 10 8 9 9 11 12 11 10 10 9 8 7 7 5 2 4 2 2 4 5 4 7 7 6 3 7 7 6 7 7 6 5 4 8 6
Wind_Direction
241 255 223 204 213 233 243 249 257 247 257 199 165 173 135 128 119 133 169 173 270 268 147 152 155 155 162 162 184 177 188 211 215 217 234 261 286 297 310 309 313 324 322 321
242 245 253 245 209 203 224 235 234 258 277 115 129 114 121 136 147 160 157 223 283 275 151 155 158 155 157 167 174 172 188 215 216 218 237 270 291 304 306 305 326 329 323 322
234 241 248 245 246 210 212 214 223 229 217 128 128 135 142 155 142 44 42 347 260 210 183 165 168 165 166 175 170 184 202 214 211 219 239 266 290 297 298 319 331 330 325 330
226 231 244 249 243 227 253 267 266 261 108 98 101 113 102 90 236 246 195 1 351 314 204 167 172 169 175 180 180 179 202 213 209 219 233 262 284 299 311 322 329 323 325 331
233 233 235 246 227 161 206 243 309 269 128 125 124 119 82 51 50 40 38 4 321 305 287 167 169 173 179 180 173 187 202 210 213 214 225 243 262 306 316 324 321 322 322 332
208 244 240 233 153 191 221 229 224 149 158 175 138 191 94 83 44 34 349 305 281 276 257 155 169 174 171 171 177 198 209 212 211 208 223 235 263 293 317 314 304 305 318 319
219 237 242 180 145 130 195 163 72 109 95 88 91 64 86 41 334 9 300 279 267 249 224 173 164 162 170 180 199 206 208 204 202 212 221 232 250 265 292 290 295 300 309 337
248 238 243 131 138 178 107 101 105 90 87 87 77 62 42 21 7 348 347 315 261 226 210 172 170 169 177 200 205 203 198 202 206 215 228 243 257 277 278 279 282 295 321 16
265 64 67 68 93 122 115 109 107 109 107 113 100 75 53 28 14 6 358 341 279 235 216 180 176 176 188 206 209 185 189 208 223 232 233 249 252 260 263 273 263 306 8 5
140 97 89 93 97 109 120 117 113 108 103 88 77 56 37 26 29 5 358 342 337 326 228 184 180 184 196 201 200 178 191 182 309 298 260 251 248 256 265 129 37 15 27 343
110 128 118 119 108 97 93 96 101 103 87 71 48 8 344 340 358 333 329 323 329 330 327 316 260 204 190 183 167 111 110 102 212 254 245 241 245 251 132 130 116 99 69 13
22 125 110 143 129 122 121 110 83 63 49 18 355 322 327 319 311 325 318 320 317 316 317 314 333 200 160 127 151 137 213 260 242 258 259 229 198 126 135 136 120 103 92 98
47 63 68 74 103 117 124 78 20 17 7 340 318 309 302 303 299 295 292 297 310 310 302 304 301 155 168 161 208 175 232 242 229 258 273 269 155 149 141 138 128 122 116 91
71 48 82 79 86 128 210 282 349 303 290 283 283 285 283 278 280 281 300 313 322 313 310 295 213 225 209 220 218 208 221 225 229 239 256 278 217 162 155 173 163 168 190 203
48 36 41 37 17 317 303 277 271 271 277 277 275 270 263 262 265 273 310 326 302 300 307 310 253 270 272 256 234 226 228 235 232 248 273 278 319 207 159 152 102 218 175 215
134 51 347 303 290 293 282 274 275 274 277 283 291 285 270 263 266 276 311 302 290 308 341 320 233 225 248 204 205 326 332 272 59 52 47 348 21 42 82 43 134 97 83 51
304 284 283 270 260 280 289 288 294 298 307 299 296 298 292 274 268 328 302 289 320 329 332 310 247 254 297 297 256 275 2 246 260 35 72 246 71 44 130 198 212 122 131 82
279 291 293 290 285 281 278 281 283 282 284 286 295 285 284 269 287 281 287 300 314 7 29 19 310 293 295 145 190 200 263 164 182 207 107 80 78 72 6 208 131 148 153 113
260 271 276 283 314 314 321 334 342 346 341 315 296 280 283 264 263 290 5 5 21 65 54 30 58 84 107 161 199 224 154 153 164 142 109 94 89 103 148 276 114 127 120 69
268 315 8 27 324 322 311 324 335 338 328 316 290 303 301 313 97 92 98 82 72 78 66 98 109 99 111 132 119 131 126 143 153 140 126 130 134 132 198 136 65 57 72 64
92 93 16 347 317 322 334 353 349 339 327 314 301 297 261 88 98 117 119 116 74 127 111 114 116 126 116 107 104 122 155 157 147 149 145 141 210 230 166 60 86 64 68 61
12 86 82 322 8 33 2 359 351 354 348 342 336 321 114 104 94 76 53 94 116 128 152 137 113 122 134 126 125 126 133 152 134 114 88 72 73 80 79 78 76 76 71 66
95 86 121 103 66 67 49 39 29 19 24 28 28 45 83 89 78 164 123 68 109 134 112 117 131 133 132 142 153 171 137 119 104 92 90 92 82 79 77 65 86 81 63 66
112 97 79 90 117 98 64 54 54 58 58 52 46 41 61 88 80 78 93 101 104 111 121 118 116 86 309 289 130 112 118 113 100 80 80 79 88 85 89 93 89 90 98 75
116 113 92 114 110 123 123 117 93 85 83 76 70 63 67 75 97 96 106 114 113 115 107 90 77 29 60 77 98 88 110 79 95 111 101 109 122 117 104 93 99 101 91 86
124 142 129 215 130 149 126 80 107 130 124 101 95 90 100 113 116 117 124 123 122 115 103 83 3 10 86 91 118 103 79 114 130 101 121 101 98 114 125 131 129 108 95 82
179 188 155 174 141 113 146 125 157 154 134 121 127 144 154 157 154 155 159 161 180 193 138 162 173 44 118 158 112 130 143 99 79 95 118 123 126 129 133 129 129 120 142 121